[Iaude] MPEC C130: 2024 CV2 [a=1.77,e=0.71,i=3.7,H=22.5]

mpec at cfa.harvard.edu mpec at cfa.harvard.edu
Mon Feb 12 08:59:02 EST 2024


M.P.E.C. 2024-C130                            Issued 2024 February 12, 13:57 UT

     The Minor Planet Electronic Circulars contain information on unusual
         minor planets, routine data on comets and natural satellites,
         and occasional editorial announcements.  They are published
    on behalf of Division F of the International Astronomical Union by the
          Minor Planet Center, Smithsonian Astrophysical Observatory,
                          Cambridge, MA 02138, U.S.A.
			  
             Prepared using the Tamkin Foundation Computer Network

                              MPC at CFA.HARVARD.EDU
            URL https://www.minorplanetcenter.net/    ISSN 1523-6714

                                    2024 CV2                                    


Observations:
     K24C02V* C2024 02 09.54181612 06 54.653+07 25 04.88         20.94wXEC130F52
     K24C02V  C2024 02 09.55363812 06 49.010+07 25 26.16         21.04wXEC130F52
     K24C02V  C2024 02 09.56548812 06 43.419+07 25 47.07         20.83wXEC130F52
     K24C02V  C2024 02 09.57732612 06 37.801+07 26 08.00         21.01wXEC130F52
     K24C02V  C2024 02 09.64789412 06 04.477+07 28 12.81         21.02GVEC130F52
     K24C02V  C2024 02 09.64953212 06 03.698+07 28 15.65         20.94GVEC130F52
     K24C02V  C2024 02 09.65035112 06 03.312+07 28 17.07         21.00GVEC130F52
     K24C02V |C2024 02 10.24172012 01 37.530+07 45 57.00         20.5 GVEC130807
     K24C02V |C2024 02 10.24494012 01 36.050+07 46 03.00         20.9 GVEC130807
     K24C02V |C2024 02 10.24832012 01 34.510+07 46 08.90         21.2 GVEC130807
     K24C02V KC2024 02 12.41898 11 46 04.59 +08 43 27.7          21.0 RVEC130291
     K24C02V KC2024 02 12.42215 11 46 03.25 +08 43 32.4          21.2 RVEC130291
     K24C02V KC2024 02 12.42534 11 46 01.92 +08 43 36.7          21.0 RVEC130291

Observer details:
291 LPL/Spacewatch II.  Observer M. T. Read.  1.8-m f/2.7 reflector + CCD.
807 Cerro Tololo Observatory, La Serena.  Observers T. Linder, R. Holmes.
    0.61-m f/11 Ritchey-Chretien + CCD.
F52 Pan-STARRS 2, Haleakala.  Observers J. Herman, T. Lowe, P. Minguez, A.
    Schultz, I. Smith.  Measurers K. Chambers, T. de Boer, J. Fairlamb, H.
    Gao, M. Huber, C.-C. Lin, E. Magnier, Y. Ramanjooloo, R. Wainscoat, R.
    Weryk.  1.8-m Ritchey-Chretien + CCD.

Orbital elements:
2024 CV2                                                 Earth MOID = 0.0383 AU
Epoch 2023 Sept. 13.0 TT = JDT 2460200.5                MPC                     
M 323.60873              (2000.0)            P               Q                  
n   0.41920735     Peri.   44.26550     +0.81097316     -0.58500519             
a   1.7681406      Node   351.52214     +0.51718166     +0.72440367             
e   0.7095340      Incl.    3.71962     +0.27357936     +0.36470297             
P   2.35           H   22.52          G   0.15           U   9                  
Residuals in seconds of arc
240209 F52  0.1-  0.0     240209 F52  0.0   0.0     240212 291  0.0   0.1+
240209 F52  0.5-  0.2+    240209 F52  0.0   0.0     240212 291  0.1-  0.1+
240209 F52  0.0   0.0     240210 807  0.1-  0.3-    240212 291  0.1+  0.3-
240209 F52  0.1-  0.1-    240210 807  0.0   0.1+
240209 F52  0.1+  0.0     240210 807  0.2+  0.2+

Ephemeris:
2024 CV2                 a,e,i = 1.77, 0.71, 4                   q = 0.5136
Date    TT    R. A. (2000) Decl.     Delta      r    Elong.  Phase     V
2024 01 13    16 44 12.8 -11 14 50   0.2183  0.8344    42.1   127.8    24.3
...
2024 01 28    14 04 53.3 -00 52 38   0.1935  1.0286    97.7    71.6    21.5
...
2024 02 05    12 44 52.2 +04 52 10   0.2182  1.1291   126.4    44.6    21.2
...
2024 02 11    11 56 02.7 +08 06 43   0.2526  1.2023   144.9    28.1    21.2
2024 02 12    11 48 57.8 +08 33 06   0.2595  1.2144   147.7    25.7    21.2
2024 02 13    11 42 10.7 +08 57 50   0.2668  1.2263   150.4    23.4    21.2
...
2024 02 19    11 07 25.6 +10 55 14   0.3168  1.2969   165.0    11.4    21.3
...
2024 02 27    10 34 43.2 +12 27 47   0.3984  1.3879   176.2     2.7    21.5
...
2024 03 13    10 02 09.2 +13 30 24   0.5891  1.5488   155.3    15.6    23.2

A. U. Tomatic                (C) Copyright 2024 MPC           M.P.E.C. 2024-C130





More information about the Iaude mailing list